This is the latest recevied weather packets stored in our database for station/object W0VI. If no packets are shown the sender has not sent any weather packets the latest 10 day(s).
| Time | Temp. | Humidity | Pressure | Rain* | Wind** | Luminosity | Snow |
|---|---|---|---|---|---|---|---|
| 1787705517 | 26.11° C | 55% | 1011.9 hPa | 0 mm | - | 7 W/m² | - |
| 1787705213 | 26.67° C | 54% | 1011.8 hPa | 0 mm | - | 10 W/m² | - |
| 1787704913 | 26.67° C | 53% | 1011.6 hPa | 0 mm | - | 13 W/m² | - |
| 1787704609 | 26.67° C | 52% | 1011.7 hPa | 0 mm | - | 16 W/m² | - |
| 1787704304 | 27.22° C | 51% | 1012 hPa | 0 mm | - | 22 W/m² | - |
| 1787704003 | 27.22° C | 51% | 1011.8 hPa | 0 mm | - | 25 W/m² | - |
| 1787703693 | 27.22° C | 51% | 1011.7 hPa | 0 mm | - | 29 W/m² | - |
| 1787703388 | 27.22° C | 51% | 1011.7 hPa | 0 mm | - | 35 W/m² | - |
| 1787703083 | 27.78° C | 52% | 1011.8 hPa | 0 mm | - | 39 W/m² | - |
| 1787702779 | 27.78° C | 54% | 1011.7 hPa | 0 mm | - | 45 W/m² | - |
| 1787702474 | 27.78° C | 59% | 1011.7 hPa | 0 mm | - | 49 W/m² | - |
| 1787702174 | 27.78° C | 61% | 1011.6 hPa | 0 mm | - | 57 W/m² | - |
| 1787701864 | 27.78° C | 62% | 1011.6 hPa | 0 mm | - | 72 W/m² | - |
| 1787701560 | 27.78° C | 64% | 1011.9 hPa | 0 mm | - | 93 W/m² | - |
| 1787701255 | 27.78° C | 65% | 1011.7 hPa | 0 mm | - | 98 W/m² | - |
| 1787700951 | 27.78° C | 66% | 1011.8 hPa | 0 mm | - | 65 W/m² | - |
| 1787700646 | 27.78° C | 73% | 1011.7 hPa | 0 mm | - | 103 W/m² | - |
| 1787700343 | 27.78° C | 73% | 1012 hPa | 0 mm | - | 132 W/m² | - |
| 1787700038 | 27.78° C | 73% | 1011.8 hPa | 0 mm | - | 132 W/m² | - |
| 1787699734 | 27.78° C | 73% | 1011.8 hPa | 0 mm | - | 161 W/m² | - |
| 1787699429 | 27.78° C | 73% | 1011.9 hPa | 0 mm | - | 181 W/m² | - |
| 1787699124 | 27.22° C | 74% | 1012 hPa | 0 mm | - | 192 W/m² | - |
| 1787698820 | 27.22° C | 74% | 1012 hPa | 0 mm | - | 159 W/m² | - |
| 1787698515 | 27.22° C | 74% | 1012.1 hPa | 0 mm | - | 206 W/m² | - |
| 1787698211 | 27.22° C | 73% | 1012 hPa | 0 mm | - | 122 W/m² | - |
* Rain latest hour (hover to see other rain measurements)
** Current wind speed in m/s (hover to see current wind gust speed)